Stations météo

Publicité
Creil Fafb, France (7057): Température de l'air & dewpoint: 20.06.2019 19:00:00 - 26.06.2019 19:00:00 (CEST)Creil Fafb, France (7057): Température de l'air 5cm: 20.06.2019 19:00:00 - 26.06.2019 19:00:00 (CEST)Creil Fafb, France (7057): Température de l'air -20cm & Température de l'air -100cm: 20.06.2019 19:00:00 - 26.06.2019 19:00:00 (CEST)Creil Fafb, France (7057): Vitesse du vent & gusts: 20.06.2019 19:00:00 - 26.06.2019 19:00:00 (CEST)Creil Fafb, France (7057): Direction du vent: 20.06.2019 19:00:00 - 26.06.2019 19:00:00 (CEST)Creil Fafb, France (7057): reduced air pressure: 20.06.2019 19:00:00 - 26.06.2019 19:00:00 (CEST)Creil Fafb, France (7057): visibility: 20.06.2019 19:00:00 - 26.06.2019 19:00:00 (CEST)Creil Fafb, France (7057): Ensoleillement: 20.06.2019 19:00:00 - 26.06.2019 19:00:00 (CEST)Creil Fafb, France (7057): Quantités de précipitations: 20.06.2019 19:00:00 - 26.06.2019 19:00:00 (CEST)
Date & Time tt [°C] td [°C] tt 5cm [°C] tt -20cm [°C] tt -100cm [°C] ff [km/h] ff [knt] fx [km/h] fx [knt] dd ppp [hPa] vv [km] sd [min] rr [mm]
26.06.2019 19:00:00 28,8 20,3 30,1 19,4 15,1 24 13 42 23 NNE 1020,7 17 60 0,0
26.06.2019 18:00:00 29,8 21,2 34,5 19,2 15,1 22 12 39 21 NNE 1020,8 19 60 0,0
26.06.2019 17:00:00 30,6 21,7 36,4 19,0 15,1 22 12 37 20 NNE 1021,1 18 60 0,0
26.06.2019 16:00:00 30,5 21,3 38,6 18,9 15,1 20 11 40 21 NE 1021,3 18 60 0,0
26.06.2019 15:00:00 29,5 21,2 44,9 18,8 15,1 19 10 35 19 NE 1021,7 17 60 0,0
26.06.2019 14:00:00 27,9 20,2 43,7 18,7 15,1 24 13 36 19 NNE 1022,3 14 60 0,0
26.06.2019 13:00:00 27,2 20,0 39,6 18,7 15,1 21 11 31 17 NNE 1022,8 14 60 0,0
26.06.2019 12:00:00 26,8 19,9 36,6 18,7 15,0 18 10 29 16 NNE 1022,8 17 60 0,0
26.06.2019 11:00:00 25,1 19,0 31,2 18,8 15,1 17 9 33 18 NNE 1022,6 16 60 0,0
26.06.2019 10:00:00 22,9 18,0 25,0 18,8 15,0 16 9 27 15 NNE 1023,2 8 60 0,0
26.06.2019 09:00:00 21,2 17,8 20,8 18,8 15,0 18 10 28 15 NNE 1022,8 6 60 0,0
26.06.2019 08:00:00 19,9 17,7 18,0 18,9 15,0 11 6 21 11 N 1023,0 5 60 0,0
26.06.2019 07:00:00 18,5 17,2 16,7 19,0 15,0 11 6 20 11 NNE 1021,9 3,8 9 0,0
26.06.2019 06:00:00 18,2 17,2 16,2 19,0 14,9 11 6 18 10 NNE 1021,7 3,6 0 0,0
26.06.2019 05:00:00 18,3 17,5 15,4 19,1 15,0 8 4 13 7 NNE 1021,8 4,1 0 0,0
26.06.2019 04:00:00 18,1 17,3 15,6 19,1 14,9 5 3 11 6 NE 1021,6 4,4 0 0,0
26.06.2019 03:00:00 18,7 17,5 15,9 19,1 14,9 7 4 11 6 NNE 1021,5 8 0 0,0
26.06.2019 02:00:00 19,4 17,9 16,9 19,2 14,9 5 3 14 8 N 1021,3 10 0 0,0
26.06.2019 01:00:00 20,2 18,0 17,8 19,2 14,9 10 5 16 9 N 1021,3 15 0 0,0
26.06.2019 00:00:00 21,2 18,2 18,5 19,2 14,9 10 5 22 12 N 1021,2 20 0 0,0
25.06.2019 23:00:00 22,4 18,2 19,2 19,1 14,8 12 6 34 18 NNE 1020,7 20 0 0,0
25.06.2019 22:00:00 24,6 19,4 21,4 19,0 14,8 13 7 34 18 N 1019,7 20 29 0,0
25.06.2019 21:00:00 27,6 20,9 24,4 18,9 14,8 19 10 31 17 N 1018,8 20 52 0,0
25.06.2019 20:00:00 30,5 20,1 28,7 18,8 14,8 10 5 16 8 N 1018,0 20 60 0,0
25.06.2019 19:00:00 31,5 19,5 31,2 18,7 14,8 6 3 19 11 NW 1017,5 20 60 0,0
25.06.2019 18:00:00 32,0 18,6 34,7 18,5 14,8 11 6 22 12 W 1017,2 20 60 0,0
25.06.2019 17:00:00 31,9 19,2 31,9 18,4 14,8 15 8 22 12 W 1017,0 20 54 0,0
25.06.2019 16:00:00 30,5 20,4 32,7 18,3 14,8 15 8 28 15 W 1016,8 19 42 0,0
25.06.2019 15:00:00 31,3 20,3 39,4 18,2 14,7 14 7 28 15 WSW 1016,6 20 60 0,0
25.06.2019 14:00:00 30,0 20,3 36,7 18,2 14,7 16 9 26 14 SW 1016,3 19 60 0,0
25.06.2019 13:00:00 28,6 20,1 33,9 18,1 14,7 11 6 24 13 SSW 1016,2 18 60 0,0
25.06.2019 12:00:00 27,6 21,2 30,5 18,1 14,7 13 7 24 13 SSW 1015,7 19 60 0,0
25.06.2019 11:00:00 26,2 20,3 28,7 18,2 14,7 11 6 21 11 SSW 1015,5 20 60 0,0
25.06.2019 10:00:00 24,2 19,3 25,4 18,2 14,7 10 5 16 9 S 1015,2 20 60 0,0
25.06.2019 09:00:00 22,4 19,2 20,6 18,3 14,7 4 2 8 4 WSW 1014,9 15 60 0,0
25.06.2019 08:00:00 20,1 18,2 17,5 18,3 14,7 0 0 9 5 N 1014,6 7 60 0,0
25.06.2019 07:00:00 18,3 18,0 14,1 18,4 14,7 5 3 8 4 WNW 1014,3 6 42 0,0
25.06.2019 06:00:00 17,7 17,4 14,0 18,5 14,6 2 1 4 2 NE 1013,8 5 0 0,0
25.06.2019 05:00:00 18,3 18,0 14,2 18,5 14,6 2 1 9 5 ENE 1013,8 8 0 0,0
25.06.2019 04:00:00 18,4 17,9 14,3 18,6 14,6 0 0 5 3 N 1013,9 12 0 0,0
25.06.2019 03:00:00 19,4 18,1 15,3 18,6 14,6 5 3 9 5 NNE 1014,1 20 0 0,0
25.06.2019 02:00:00 20,1 18,8 16,7 18,6 14,6 5 3 14 8 NNE 1014,3 20 0 0,0
25.06.2019 01:00:00 21,0 19,1 17,7 18,6 14,6 5 3 16 9 NE 1014,3 20 0 0,0
25.06.2019 00:00:00 21,5 19,4 18,0 18,6 14,6 8 4 18 10 NNE 1015,0 20 0 0,0
24.06.2019 23:00:00 22,5 19,9 19,0 18,6 14,6 5 3 15 8 NNE 1015,5 17 0 0,0
24.06.2019 22:00:00 23,1 20,1 19,5 18,5 14,6 8 5 19 11 NNE 1015,3 20 28 0,0
24.06.2019 21:00:00 25,2 20,5 23,0 18,4 14,6 9 5 18 10 N 1015,3 20 42 0,0
24.06.2019 20:00:00 27,5 21,3 26,9 18,2 14,5 11 6 28 15 NNE 1015,2 19 48 0,0
24.06.2019 19:00:00 27,4 20,7 28,2 18,1 14,6 16 9 26 14 NNE 1015,4 20 25 0,0
24.06.2019 18:00:00 27,3 19,9 30,6 18,0 14,5 19 10 31 17 NNE 1015,6 20 42 0,0
24.06.2019 17:00:00 28,0 20,3 32,2 17,9 14,5 19 10 30 16 NNE 1015,8 20 36 0,0
24.06.2019 16:00:00 27,7 20,3 30,5 17,7 14,5 18 10 29 16 N 1016,0 20 6 0,0
24.06.2019 15:00:00 29,3 19,9 34,4 17,6 14,5 11 6 18 10 NNW 1016,1 20 24 0,0
24.06.2019 14:00:00 29,9 20,2 35,0 17,5 14,5 10 5 22 12 NW 1016,0 20 44 0,0
24.06.2019 13:00:00 29,1 19,4 36,0 17,5 14,5 11 6 23 12 WNW 1016,2 20 48 0,0
24.06.2019 12:00:00 28,9 19,2 32,5 17,5 14,5 7 4 20 11 E 1015,9 20 40 0,0
24.06.2019 11:00:00 28,2 19,4 32,1 17,4 14,4 12 6 16 9 E 1015,3 19 60 0,0
24.06.2019 10:00:00 25,8 18,2 27,0 17,5 14,4 9 5 17 9 SE 1015,6 20 56 0,0
24.06.2019 09:00:00 23,9 17,4 21,6 17,5 14,4 10 5 17 9 SSE 1015,3 20 41 0,0
24.06.2019 08:00:00 21,6 17,0 18,1 17,5 14,4 8 4 13 7 ESE 1015,3 20 36 0,0
24.06.2019 07:00:00 20,1 16,5 17,5 17,6 14,4 5 3 11 6 ESE 1015,4 20 0 0,0
24.06.2019 06:00:00 19,5 16,9 16,8 17,6 14,4 5 3 11 6 E 1015,1 20 0 0,0
24.06.2019 05:00:00 20,2 16,8 18,0 17,6 14,4 9 5 24 13 SE 1015,0 20 0 0,0
24.06.2019 04:00:00 21,2 17,0 18,6 17,7 14,4 16 9 26 14 SE 1014,6 20 0 0,0
24.06.2019 03:00:00 21,0 17,2 18,6 17,7 14,4 14 8 24 13 SE 1014,8 20 0 0,0
24.06.2019 02:00:00 21,7 17,3 18,6 17,7 14,4 12 7 18 10 ESE 1015,0 20 0 0,0
24.06.2019 01:00:00 22,4 17,3 19,2 17,7 14,4 8 5 18 10 SE 1015,1 20 0 0,0
24.06.2019 00:00:00 23,1 17,6 17,4 17,7 14,4 13 7 19 10 ESE 1014,9 20 0 0,0
23.06.2019 23:00:00 22,8 17,7 17,5 17,6 14,4 9 5 13 7 E 1014,7 20 0 0,0
23.06.2019 22:00:00 23,7 17,7 19,8 17,5 14,4 8 4 9 5 E 1014,2 20 0 0,0
23.06.2019 21:00:00 25,2 17,9 22,8 17,4 14,4 6 3 11 6 ESE 1014,1 19 0 0,0
23.06.2019 20:00:00 26,2 17,6 25,2 17,3 14,4 8 4 23 12 ESE 1013,7 20 4 0,0
23.06.2019 19:00:00 27,2 17,4 26,9 17,2 14,3 14 8 32 17 ESE 1013,7 20 26 0,0
23.06.2019 18:00:00 27,4 16,7 28,9 17,1 14,4 19 10 30 16 ESE 1013,8 20 48 0,0
23.06.2019 17:00:00 27,6 16,6 29,7 16,9 14,3 16 9 30 16 ESE 1014,2 20 37 0,0
23.06.2019 16:00:00 26,6 17,4 27,2 16,8 14,3 13 7 22 12 SE 1014,2 19 0 0,0
23.06.2019 15:00:00 26,4 15,7 30,5 16,7 14,4 16 9 36 19 SE 1014,5 20 45 0,0
23.06.2019 14:00:00 26,6 15,3 33,5 16,5 14,3 18 10 31 17 E 1014,9 20 54 0,0
23.06.2019 13:00:00 25,9 15,6 35,3 16,5 14,3 18 10 35 19 SE 1015,2 19 60 0,0
23.06.2019 12:00:00 24,9 15,8 31,9 16,5 14,3 17 9 26 14 SE 1015,5 20 60 0,0
23.06.2019 11:00:00 23,9 15,4 29,5 16,5 14,3 10 5 18 10 E 1015,9 10 60 0,0
23.06.2019 10:00:00 21,8 15,6 22,7 16,6 14,3 5 3 11 6 E 1015,9 14 60 0,0
23.06.2019 09:00:00 19,7 14,3 17,3 16,7 14,3 6 3 12 6 N 1016,2 19 60 0,0
23.06.2019 08:00:00 16,9 13,8 11,3 16,8 14,3 8 4 13 7 NNE 1016,3 18 60 0,0
23.06.2019 07:00:00 13,6 12,7 9,2 16,8 14,3 5 3 13 7 NNE 1016,7 7 24 0,0
23.06.2019 06:00:00 12,1 11,3 9,2 16,9 14,3 6 3 8 4 NNE 1016,9 7 0 0,0
23.06.2019 05:00:00 13,4 12,0 9,4 17,0 14,3 5 3 8 4 N 1017,1 16 0 0,0
23.06.2019 04:00:00 13,8 12,2 9,6 17,1 14,3 3 2 8 4 NNE 1017,1 19 0 0,0
23.06.2019 03:00:00 13,8 11,8 9,9 17,1 14,3 5 3 8 4 NNE 1017,3 18 0 0,0
23.06.2019 02:00:00 14,8 12,5 10,4 17,1 14,3 5 3 9 5 ENE 1017,4 20 0 0,0
23.06.2019 01:00:00 16,3 13,0 11,2 17,1 14,3 5 3 13 7 NE 1017,5 20 0 0,0
23.06.2019 00:00:00 17,1 13,2 11,8 17,2 14,3 7 4 12 6 NE 1018,1 20 0 0,0
22.06.2019 23:00:00 17,6 13,3 12,9 17,1 14,3 6 4 11 6 NE 1018,1 20 0 0,0
22.06.2019 22:00:00 20,2 13,4 17,3 17,0 14,3 8 4 10 6 NNE 1017,7 20 0 0,0
22.06.2019 21:00:00 20,9 13,3 19,0 17,0 14,3 6 3 12 6 NNE 1017,2 20 0 0,0
22.06.2019 20:00:00 22,2 13,0 21,7 16,8 14,3 4 2 13 7 NNE 1017,3 20 0 0,0
22.06.2019 19:00:00 22,0 13,4 22,5 16,6 14,3 8 4 18 10 ENE 1017,3 20 12 0,0
22.06.2019 18:00:00 23,5 12,5 25,2 16,5 14,3 13 7 21 12 NNE 1017,4 20 35 0,0
22.06.2019 17:00:00 23,4 12,1 27,2 16,3 14,3 8 4 22 12 NNE 1017,9 20 30 0,0
22.06.2019 16:00:00 22,8 11,5 29,2 16,1 14,3 5 3 24 13 E 1018,4 20 48 0,0
22.06.2019 15:00:00 23,0 11,4 39,0 16,0 14,3 8 4 19 11 NNE 1018,9 20 60 0,0
22.06.2019 14:00:00 22,2 11,9 35,8 16,0 14,3 10 5 27 15 NE 1019,5 20 60 0,0
22.06.2019 13:00:00 21,2 11,5 33,2 16,0 14,3 13 7 31 17 NE 1019,7 20 60 0,0
22.06.2019 12:00:00 20,5 11,4 33,1 16,0 14,3 13 7 29 16 NE 1019,9 20 60 0,0
22.06.2019 11:00:00 19,0 11,8 27,2 16,0 14,3 13 7 24 13 N 1020,2 20 60 0,0
22.06.2019 10:00:00 17,1 11,8 19,2 16,1 14,3 11 6 18 10 N 1020,7 20 60 0,0
22.06.2019 09:00:00 14,7 10,5 13,0 16,2 14,3 10 5 19 10 N 1021,2 20 60 0,0
22.06.2019 08:00:00 12,6 9,6 7,4 16,3 14,3 9 5 13 7 N 1021,2 20 60 0,0
22.06.2019 07:00:00 10,5 9,3 4,7 16,4 14,3 4 2 9 5 NNE 1021,4 19 47 0,0
22.06.2019 06:00:00 8,6 8,2 4,6 16,5 14,3 5 3 9 5 NNE 1021,5 16 0 0,0
22.06.2019 05:00:00 9,3 8,8 4,8 16,6 14,3 3 2 11 6 NE 1021,6 19 0 0,2
22.06.2019 04:00:00 10,2 9,3 5,3 16,7 14,3 8 4 15 8 N 1021,6 20 0 0,0
22.06.2019 03:00:00 10,1 9,2 5,4 16,8 14,3 6 3 14 8 N 1022,0 20 0 0,0
22.06.2019 02:00:00 10,5 8,8 5,8 16,8 14,3 5 3 11 6 NNE 1022,3 20 0 0,0
22.06.2019 01:00:00 11,1 8,1 6,4 16,8 14,3 8 4 9 5 NE 1022,2 20 0 0,0
22.06.2019 00:00:00 11,9 8,4 6,7 16,9 14,3 7 4 10 5 NNE 1022,1 20 0 0,0
21.06.2019 23:00:00 13,5 9,0 8,7 16,9 14,3 7 4 18 10 NNE 1021,9 20 0 0,0
21.06.2019 22:00:00 16,2 9,1 11,3 16,8 14,3 11 6 21 11 N 1021,5 20 30 0,0
21.06.2019 21:00:00 18,4 8,6 15,0 16,7 14,3 13 7 26 14 NNE 1020,7 20 60 0,0
21.06.2019 20:00:00 19,7 9,0 18,6 16,6 14,3 13 7 24 13 NNE 1020,3 20 60 0,0
21.06.2019 19:00:00 20,6 9,8 22,4 16,5 14,3 13 7 24 13 NNE 1020,1 20 48 0,0
21.06.2019 18:00:00 21,1 9,7 20,8 16,4 14,3 9 5 25 13 NNE 1020,1 20 28 0,0
21.06.2019 17:00:00 19,9 9,7 22,3 16,3 14,3 13 7 22 12 N 1020,1 20 30 0,0
21.06.2019 16:00:00 20,8 8,4 23,3 16,2 14,3 9 5 22 12 NNW 1020,2 20 42 0,0
21.06.2019 15:00:00 19,1 8,7 25,5 16,2 14,3 9 5 16 9 NNE 1020,6 20 24 0,0
21.06.2019 14:00:00 19,2 9,1 23,3 16,1 14,3 4 2 21 11 NW 1020,6 20 24 0,0
21.06.2019 13:00:00 19,9 10,0 21,9 16,1 14,3 9 5 18 10 N 1020,6 17 42 0,0
21.06.2019 12:00:00 18,1 10,0 25,6 16,2 14,3 6 3 16 9 W 1020,8 20 49 0,0
21.06.2019 11:00:00 17,3 9,2 21,0 16,2 14,3 8 4 18 10 WNW 1020,8 20 54 0,0
21.06.2019 10:00:00 15,9 10,0 17,8 16,3 14,3 8 4 16 9 NW 1020,8 19 49 0,0
21.06.2019 09:00:00 15,3 11,5 13,2 16,4 14,3 7 4 15 8 NW 1020,6 20 60 0,0
21.06.2019 08:00:00 12,9 11,3 8,4 16,5 14,3 0 0 3 2 N 1020,3 19 60 0,0
21.06.2019 07:00:00 10,0 9,4 6,3 16,6 14,3 0 0 4 2 N 1020,0 20 27 0,0
21.06.2019 06:00:00 8,5 8,1 4,8 16,7 14,3 0 0 4 2 N 1019,8 20 0 0,0
21.06.2019 05:00:00 8,9 8,1 5,9 16,8 14,3 0 0 0 0 N 1019,4 18 0 0,0
21.06.2019 04:00:00 9,1 8,6 5,9 16,9 14,3 0 0 2 1 N 1019,2 20 0 0,0
21.06.2019 03:00:00 9,6 8,8 5,8 16,9 14,3 0 0 3 1 N 1019,2 20 0 0,0
21.06.2019 02:00:00 10,3 9,5 6,4 17,0 14,3 3 1 6 3 ESE 1019,2 20 0 0,0
21.06.2019 01:00:00 11,1 9,7 6,7 17,1 14,2 4 2 8 4 ESE 1018,9 20 0 0,0
21.06.2019 00:00:00 11,4 9,3 7,5 17,1 14,2 4 2 9 5 E 1018,2 20 0 0,0
20.06.2019 23:00:00 13,4 9,3 8,6 17,1 14,2 4 2 9 5 NNW 1017,8 20 0 0,0
20.06.2019 22:00:00 15,2 9,1 11,0 17,1 14,2 5 3 14 7 NNW 1017,2 20 0 0,0
20.06.2019 21:00:00 17,7 8,3 14,3 17,1 14,2 10 5 19 10 NNW 1016,5 20 28 0,0
20.06.2019 20:00:00 20,0 7,7 18,3 17,1 14,2 9 5 24 13 NW 1016,1 20 54 0,0
20.06.2019 19:00:00 19,2 7,9 19,4 17,0 14,2 13 7 26 14 WNW 1015,9 20 8 0,0

tt = Température de l'air
td = dewpoint
tt 5cm = Température de l'air 5cm
tt -20cm = Température de l'air -20cm
tt -100cm = Température de l'air -100cm
ff = Vitesse du vent
fx = gusts
dd = Direction du vent
ppp = reduced air pressure
vv = visibility
sd = Ensoleillement
rr = Quantités de précipitations

stations d'obs. à proximité